Date String (YYYY-MM-DD hh:mm:ss) UTC,Instrument flags,absolute air pressure of the measurement (hPa),sample flow rate (lpm),inlet stack bypass flow (lpm),air temperature of the measurement (°C),ambient temperature measured by the external sensor (°C),aerosol sample conditioner tube jacket temperature (°C),OPC LED temperature (°C),internal box temperature (°C),relative humidity of the measurement (%),span deviation,mass concentration of particles derived from Lorenz-Mie calculation of OPC scattering (μg/m³),mass concentration of particles derived from Lorenz-Mie calculation of OPC scattering (μg/m³),mass concentration of particles derived from Lorenz-Mie calculation of OPC scattering (μg/m³)
DateTimeUTC,F1_M11,P_M11,Q1_M11,Q2_M11,T1_M11,T2_M11,T3_M11,T4_M11,T5_M11,U1_M11,ZSPAN_M11,X2_M11,X0_M11,X1_M11
2023-08-12 03:00:00,SystemResetWarning,0832.0,5.00,000.00,028.9,027.0,000.0,037.4,030.6,29.8,0000.0,0003.91,0007.77,0003.25
2023-08-12 03:01:00,SystemResetWarning,0832.0,5.00,000.00,028.9,027.3,000.0,037.4,030.7,29.7,0000.0,0003.90,0007.38,0003.24
2023-08-12 03:02:00,SystemResetWarning,0832.0,5.00,000.00,029.0,027.5,000.0,037.4,030.7,29.6,0000.0,0003.88,0007.37,0003.24
2023-08-12 03:03:00,SystemResetWarning,0832.0,5.00,000.00,029.0,027.7,000.0,037.4,030.8,29.5,0000.0,0003.85,0007.26,0003.24
2023-08-12 03:04:00,SystemResetWarning,0832.0,4.99,000.00,029.1,027.8,000.0,037.5,030.8,29.3,0000.0,0003.83,0007.53,0003.24
2023-08-12 03:05:00,SystemResetWarning,0832.0,4.99,000.00,029.1,027.4,000.0,037.4,030.8,29.2,0000.0,0003.80,0007.60,0003.23
2023-08-12 03:06:00,SystemResetWarning,0832.0,4.99,000.00,029.0,025.8,000.0,037.3,030.5,29.3,0000.0,0003.81,0007.62,0003.24
2023-08-12 03:07:00,SystemResetWarning,0832.0,5.01,000.00,029.0,025.3,000.0,037.2,030.3,29.4,0000.0,0003.81,0007.60,0003.25
2023-08-12 03:08:00,SystemResetWarning,0832.0,5.01,000.00,028.9,025.5,000.0,037.3,030.2,29.8,0000.0,0003.78,0007.56,0003.25
2023-08-12 03:09:00,SystemResetWarning,0832.0,4.99,000.00,028.9,025.9,000.0,037.3,030.3,29.6,0000.0,0003.75,0007.50,0003.25
2023-08-12 03:10:00,SystemResetWarning,0832.0,5.00,000.00,028.9,026.3,000.0,037.3,030.4,29.5,0000.0,0003.68,0007.19,0003.25
2023-08-12 03:11:00,SystemResetWarning,0832.0,5.00,000.00,028.9,026.6,000.0,037.4,030.5,29.6,0000.0,0003.64,0006.76,0003.25
2023-08-12 03:12:00,SystemResetWarning,0832.1,5.00,000.00,028.9,026.9,000.0,037.4,030.6,31.7,0000.0,0003.67,0006.80,0003.26
2023-08-12 03:13:00,SystemResetWarning,0832.1,4.99,000.00,028.9,027.2,000.0,037.4,030.7,32.5,0000.0,0003.66,0007.12,0003.25
2023-08-12 03:14:00,SystemResetWarning,0832.1,5.00,000.00,029.0,027.4,000.0,037.4,030.7,33.2,0000.0,0003.70,0007.42,0003.26
2023-08-12 03:15:00,SystemResetWarning,0832.1,4.99,000.00,029.0,027.6,000.0,037.4,030.8,33.2,0000.0,0003.75,0007.27,0003.27
2023-08-12 03:16:00,SystemResetWarning,0832.1,5.01,000.00,029.1,027.8,000.0,037.5,030.8,33.1,0000.0,0003.76,0007.15,0003.28
2023-08-12 03:17:00,SystemResetWarning,0832.1,5.01,000.00,029.1,027.9,000.0,037.5,030.9,33.0,0000.0,0003.78,0007.25,0003.29
2023-08-12 03:18:00,SystemResetWarning,0832.1,4.98,000.00,029.1,027.1,000.0,037.4,030.7,33.1,0000.0,0003.79,0007.29,0003.29
2023-08-12 03:19:00,SystemResetWarning,0832.1,5.00,000.00,029.1,025.7,000.0,037.3,030.5,32.0,0000.0,0003.77,0007.17,0003.29
2023-08-12 03:20:00,SystemResetWarning,0832.1,5.01,000.00,029.0,025.3,000.0,037.2,030.3,31.5,0000.0,0003.78,0007.63,0003.29
2023-08-12 03:21:00,SystemResetWarning,0832.0,5.01,000.00,028.9,025.6,000.0,037.3,030.2,31.1,0000.0,0003.80,0007.73,0003.31
2023-08-12 03:22:00,SystemResetWarning,0832.0,5.00,000.00,028.9,025.9,000.0,037.3,030.3,30.7,0000.0,0003.82,0007.75,0003.32
2023-08-12 03:23:00,SystemResetWarning,0832.0,5.00,000.00,028.9,026.3,000.0,037.4,030.4,30.0,0000.0,0003.79,0007.91,0003.33
2023-08-12 03:24:00,SystemResetWarning,0832.0,5.00,000.00,028.9,026.6,000.0,037.4,030.5,30.3,0000.0,0003.79,0007.97,0003.34
2023-08-12 03:25:00,SystemResetWarning,0832.1,5.00,000.00,028.9,027.0,000.0,037.4,030.6,29.2,0000.0,0003.78,0007.82,0003.34
2023-08-12 03:26:00,SystemResetWarning,0832.1,5.00,000.00,028.9,027.2,000.0,037.4,030.7,29.1,0000.0,0003.76,0007.68,0003.35
2023-08-12 03:27:00,SystemResetWarning,0832.0,5.00,000.00,029.0,027.5,000.0,037.4,030.7,29.1,0000.0,0003.80,0007.76,0003.35
2023-08-12 03:28:00,SystemResetWarning,0832.1,5.00,000.00,029.0,027.6,000.0,037.5,030.8,29.1,0000.0,0003.83,0007.89,0003.35
2023-08-12 03:29:00,SystemResetWarning,0832.0,5.00,000.00,029.1,027.8,000.0,037.5,030.8,28.5,0000.0,0003.83,0007.87,0003.36
2023-08-12 03:30:00,SystemResetWarning,0832.1,5.00,000.00,029.1,028.0,000.0,037.5,030.9,28.2,0000.0,0003.86,0007.95,0003.36
2023-08-12 03:31:00,SystemResetWarning,0832.1,5.00,000.00,029.2,027.6,000.0,037.5,030.9,28.0,0000.0,0003.89,0007.70,0003.37
2023-08-12 03:32:00,SystemResetWarning,0832.0,4.98,000.00,029.1,026.0,000.0,037.4,030.5,27.0,0000.0,0003.90,0007.86,0003.38
2023-08-12 03:33:00,SystemResetWarning,0832.1,5.02,000.00,029.0,025.3,000.0,037.3,030.3,27.8,0000.0,0003.92,0007.93,0003.39
2023-08-12 03:34:00,SystemResetWarning,0832.0,5.01,000.00,028.9,025.4,000.0,037.3,030.1,27.8,0000.0,0003.95,0007.90,0003.40
2023-08-12 03:35:00,SystemResetWarning,0832.1,4.99,000.00,028.9,025.8,000.0,037.4,030.2,28.2,0000.0,0003.98,0007.80,0003.41
2023-08-12 03:36:00,SystemResetWarning,0832.1,5.00,000.00,028.9,026.2,000.0,037.4,030.4,28.7,0000.0,0003.99,0007.79,0003.43
2023-08-12 03:37:00,SystemResetWarning,0832.1,5.00,000.00,028.9,026.5,000.0,037.4,030.5,28.8,0000.0,0004.01,0007.83,0003.44
2023-08-12 03:38:00,SystemResetWarning,0832.1,5.00,000.00,028.9,026.9,000.0,037.4,030.6,28.8,0000.0,0003.97,0007.57,0003.45
2023-08-12 03:39:00,SystemResetWarning,0832.1,5.00,000.00,029.0,027.2,000.0,037.4,030.7,28.6,0000.0,0003.92,0007.37,0003.46
2023-08-12 03:40:00,SystemResetWarning,0832.1,5.00,000.00,029.0,027.4,000.0,037.5,030.7,28.5,0000.0,0003.94,0007.44,0003.47
2023-08-12 03:41:00,SystemResetWarning,0832.1,5.00,000.00,029.0,027.6,000.0,037.5,030.8,28.4,0000.0,0003.96,0007.50,0003.48
2023-08-12 03:42:00,SystemResetWarning,0832.2,4.99,000.00,029.1,027.8,000.0,037.5,030.8,28.5,0000.0,0003.97,0007.45,0003.49
2023-08-12 03:43:00,SystemResetWarning,0832.1,5.00,000.00,029.1,027.9,000.0,037.5,030.9,28.2,0000.0,0003.96,0007.17,0003.49
2023-08-12 03:44:00,SystemResetWarning,0832.1,4.99,000.00,029.1,027.3,000.0,037.5,030.8,28.0,0000.0,0003.96,0007.06,0003.50
2023-08-12 03:45:00,SystemResetWarning,0832.0,5.01,000.00,029.1,025.7,000.0,037.4,030.5,28.2,0000.0,0003.95,0006.66,0003.52
2023-08-12 03:46:00,SystemResetWarning,0832.1,5.02,000.00,029.0,025.3,000.0,037.3,030.3,28.5,0000.0,0003.95,0007.02,0003.52
2023-08-12 03:47:00,SystemResetWarning,0832.1,5.00,000.00,028.9,025.5,000.0,037.3,030.2,28.6,0000.0,0003.97,0007.31,0003.54
2023-08-12 03:48:00,SystemResetWarning,0832.0,4.99,000.00,028.9,025.8,000.0,037.4,030.3,28.4,0000.0,0003.97,0007.35,0003.53
2023-08-12 03:49:00,SystemResetWarning,0832.0,5.00,000.00,028.9,026.2,000.0,037.4,030.4,27.7,0000.0,0003.99,0007.42,0003.54
2023-08-12 03:50:00,SystemResetWarning,0832.0,5.01,000.00,028.9,026.6,000.0,037.4,030.5,26.8,0000.0,0004.05,0007.86,0003.55
2023-08-12 03:51:00,SystemResetWarning,0832.0,5.01,000.00,028.9,026.9,000.0,037.4,030.6,26.2,0000.0,0004.05,0008.02,0003.57
2023-08-12 03:52:00,SystemResetWarning,0832.0,5.00,000.00,028.9,027.2,000.0,037.4,030.7,25.8,0000.0,0004.05,0008.55,0003.57
2023-08-12 03:53:00,SystemResetWarning,0832.0,5.00,000.00,029.0,027.4,000.0,037.5,030.7,25.9,0000.0,0004.02,0008.64,0003.56
2023-08-12 03:54:00,SystemResetWarning,0832.1,5.00,000.00,029.0,027.6,000.0,037.5,030.8,25.2,0000.0,0004.02,0008.66,0003.57
2023-08-12 03:55:00,SystemResetWarning,0832.0,5.00,000.00,029.1,027.8,000.0,037.5,030.8,25.7,0000.0,0004.03,0008.68,0003.57
2023-08-12 03:56:00,SystemResetWarning,0832.0,5.00,000.00,029.1,027.9,000.0,037.5,030.9,26.3,0000.0,0004.03,0008.68,0003.56
2023-08-12 03:57:00,SystemResetWarning,0832.0,5.00,000.00,029.2,028.0,000.0,037.6,030.9,25.3,0000.0,0004.02,0008.63,0003.54
2023-08-12 03:58:00,SystemResetWarning,0832.0,4.99,000.00,029.2,027.1,000.0,037.5,030.8,25.1,0000.0,0004.03,0008.43,0003.53
2023-08-12 03:59:00,SystemResetWarning,0832.0,5.00,000.00,029.1,025.6,000.0,037.4,030.5,25.4,0000.0,0004.02,0008.35,0003.53
